This is the latest recevied weather packets stored in our database for station/object SP2MHC-2. If no packets are shown the sender has not sent any weather packets the latest 10 day(s).
| Time | Temp. | Humidity | Pressure | Rain* | Wind** | Luminosity | Snow |
|---|---|---|---|---|---|---|---|
| 1777716589 | 27.78° C | 18% | 1018.3 hPa | - | - | - | - |
| 1777716588 | 27.78° C | 18% | 1018.3 hPa | - | - | - | - |
| 1777715689 | 27.78° C | 19% | 1018.6 hPa | - | - | - | - |
| 1777715688 | 27.78° C | 19% | 1018.6 hPa | - | - | - | - |
| 1777714789 | 28.89° C | 19% | 1018.8 hPa | - | - | - | - |
| 1777714788 | 28.89° C | 19% | 1018.8 hPa | - | - | - | - |
| 1777713888 | 27.78° C | 21% | 1019 hPa | - | - | - | - |
| 1777713888 | 27.78° C | 21% | 1019 hPa | - | - | - | - |
| 1777713020 | 28.33° C | 22% | 1019.1 hPa | - | - | - | - |
| 1777712988 | 28.33° C | 22% | 1019.1 hPa | - | - | - | - |
| 1777712987 | 28.33° C | 22% | 1019.1 hPa | - | - | - | - |
| 1777712088 | 28.33° C | 23% | 1019.3 hPa | - | - | - | - |
| 1777712087 | 28.33° C | 23% | 1019.3 hPa | - | - | - | - |
| 1777711188 | 27.78° C | 23% | 1019.3 hPa | - | - | - | - |
| 1777711187 | 27.78° C | 23% | 1019.3 hPa | - | - | - | - |
| 1777710288 | 28.89° C | 23% | 1019.5 hPa | - | - | - | - |
| 1777710287 | 28.89° C | 23% | 1019.5 hPa | - | - | - | - |
| 1777709388 | 29.44° C | 22% | 1019.7 hPa | - | - | - | - |
| 1777709387 | 29.44° C | 22% | 1019.7 hPa | - | - | - | - |
| 1777708487 | 28.89° C | 23% | 1019.8 hPa | - | - | - | - |
| 1777708487 | 28.89° C | 23% | 1019.8 hPa | - | - | - | - |
| 1777707587 | 27.22° C | 25% | 1019.8 hPa | - | - | - | - |
| 1777707586 | 27.22° C | 25% | 1019.8 hPa | - | - | - | - |
| 1777706687 | 27.22° C | 24% | 1019.8 hPa | - | - | - | - |
| 1777706686 | 27.22° C | 24% | 1019.8 hPa | - | - | - | - |
* Rain since midnight (hover to see other rain measurements)
** Current wind speed in m/s (hover to see current wind gust speed)